Flag for Tunisia Weather past 2 weeks in Tunis, Tunisia

Now
72 °F

Passing clouds.


Feels Like: 75 °F
Forecast: 48 / 58 °F
Wind: 6 mph from Northwest

Location: Tunis-Carthage

Current Time: Mar 4, 2015 at 6:48:21 PM

Latest Report: Mar 4, 2015 at 6:00 PM


Visibility: N/A

Pressure: 30.04 "Hg

Humidity: 65%

Dew point: 59 °F

Location of TunisLocation

Historic Weather in Tunis — Graph

°F

Tunis temperature yesterday

Maximum temperature yesterday: 73 °F (at 1:30 PM)
Minimum temperature yesterday: 54 °F (at 4:30 AM)
Average temperature yesterday: 62 °F

Past Weeks' High & Low Weather Summary

 TemperatureHumidityPressure
High79 °F (Mar 4, 2:30 PM)100% (Feb 18, 2:00 AM)30.39 "Hg (Feb 18, 2:00 AM)
Low41 °F (Feb 20, 6:30 AM)45% (Mar 4, 2:30 PM)29.39 "Hg (Feb 22, 5:00 AM)
Average54 °F78%29.99 "Hg
* Reported Feb 17 5:00 PM — Mar 4 5:30 PM, Tunis, Weather by CustomWeather, © 2015

Note: Actual official high and low records may vary slightly from our data, if they occured in-between our weather recording intervals... More about our weather records

Advertising

Tunis weather history for previous 24 hours

 ConditionsComfort  
Time TempWeatherWind HumidityBarometerVisibility
5:30 PM
Wed, Mar 4
73 °FPassing clouds.No wind61%30.01 "HgN/A
5:00 PM75 °FPassing clouds.6 mph54%30.01 "HgN/A
4:30 PM79 °FPassing clouds.6 mph48%30.04 "HgN/A
3:30 PM79 °FPassing clouds.7 mph48%30.04 "HgN/A
3:00 PM79 °FPassing clouds.5 mph51%30.07 "HgN/A
2:30 PM79 °FPassing clouds.8 mph45%30.07 "HgN/A
2:00 PM77 °FPassing clouds.5 mph47%30.09 "HgN/A
1:30 PM77 °FPassing clouds.6 mph47%30.09 "HgN/A
1:00 PM75 °FPassing clouds.6 mph54%30.12 "HgN/A
12:30 PM75 °FPassing clouds.6 mph50%30.15 "HgN/A
12:00 PM73 °FPassing clouds.6 mph53%30.15 "HgN/A
11:30 AM72 °FPassing clouds.7 mph53%30.18 "HgN/A
11:00 AM70 °FPassing clouds.5 mph57%30.18 "HgN/A
10:30 AM66 °FPassing clouds.6 mph64%30.21 "HgN/A
10:00 AM64 °FPassing clouds.6 mph73%30.21 "Hg5 mi
9:30 AM61 °FPassing clouds.6 mph77%30.21 "Hg4 mi
9:00 AM59 °FPassing clouds.6 mph82%30.24 "Hg4 mi
8:30 AM57 °FPassing clouds.5 mph94%30.24 "Hg4 mi
8:01 AM55 °FPassing clouds.No wind94%30.24 "Hg4 mi
7:30 AM50 °FFog.No wind94%30.24 "Hg2 mi
7:00 AM52 °FFog.No wind100%30.24 "Hg2 mi
6:30 AM52 °FFog.No wind94%30.24 "Hg2 mi
6:00 AM50 °FFog.No wind100%30.24 "Hg2 mi
5:51 AM50 °FFog.No wind100%30.24 "Hg2 mi
5:30 AM52 °FPassing clouds.No wind94%30.24 "Hg4 mi
4:30 AM50 °FPassing clouds.No wind94%30.24 "Hg3 mi
4:00 AM52 °FPassing clouds.No wind94%30.24 "Hg5 mi
3:30 AM52 °FPassing clouds.No wind94%30.24 "Hg5 mi
3:00 AM50 °FPassing clouds.No wind94%30.27 "HgN/A
2:30 AM52 °FPassing clouds.No wind94%30.27 "HgN/A
2:00 AM54 °FPassing clouds.No wind88%30.27 "HgN/A
1:30 AM54 °FPassing clouds.No wind94%30.27 "HgN/A
1:00 AM54 °FPassing clouds.No wind88%30.27 "HgN/A
12:30 AM54 °FPassing clouds.No wind94%30.30 "HgN/A
12:00 AM54 °FPassing clouds.No wind88%30.30 "HgN/A
11:00 PM
Tue, Mar 3
55 °FPassing clouds.No wind88%30.30 "HgN/A
10:30 PM57 °FPassing clouds.No wind82%30.30 "HgN/A
10:00 PM55 °FPassing clouds.No wind94%30.30 "HgN/A
9:30 PM57 °FPassing clouds.No wind88%30.30 "HgN/A
8:00 PM59 °FPassing clouds.No wind82%30.30 "HgN/A
7:30 PM59 °FPassing clouds.No wind82%30.27 "HgN/A
7:00 PM61 °FPassing clouds.No wind83%30.27 "HgN/A
6:30 PM63 °FPassing clouds.No wind77%30.27 "HgN/A
6:00 PM64 °FPassing clouds.No wind73%30.24 "HgN/A
Weather by CustomWeather, © 2015

See weather overviewHow to use our weather pages